Wind_Speed
31 31 31 31 31 31 31 31 30 29 29 28 26 25 24 23 22 23 22 21 21 20 18 17 16 16 16 16 17 16 16 16 16 17 17 17 17 17 17 17 17 17 17 17
32 32 33 33 33 33 32 32 32 31 30 29 28 27 26 25 25 25 24 24 24 23 22 20 19 18 19 19 18 19 19 18 18 19 20 20 20 20 19 19 19 20 20 19
34 33 34 35 34 35 35 35 34 34 33 31 31 30 29 29 28 27 27 26 25 24 22 22 22 22 22 22 21 21 21 21 21 21 22 22 21 21 22 21 21 20 21 20
37 36 36 35 35 36 36 36 36 36 35 34 33 32 31 31 31 30 29 28 27 27 26 25 24 24 24 24 24 24 25 25 25 25 24 23 23 23 23 23 22 21 21 20
37 37 39 38 36 37 37 38 37 38 37 37 36 35 34 32 32 32 31 31 30 28 27 27 26 26 26 26 26 26 26 26 26 27 26 24 24 24 24 24 24 23 22 21
39 39 39 38 38 38 38 39 38 38 37 37 37 37 36 35 34 33 32 32 32 31 31 29 29 28 28 27 28 28 28 27 28 28 27 26 26 25 25 25 25 25 25 23
40 40 40 39 38 38 38 39 38 38 38 38 37 37 37 37 37 37 36 34 34 34 33 32 31 30 30 30 30 30 30 30 30 30 29 29 28 27 27 26 26 26 25 25
39 40 39 38 37 38 38 38 38 38 39 39 39 39 39 39 39 38 38 37 36 36 36 35 34 33 33 33 33 33 32 32 32 31 30 30 30 30 29 28 27 27 27 27
39 39 38 38 38 38 38 39 39 39 39 40 40 41 40 41 41 40 39 38 38 38 38 38 37 36 36 35 34 34 33 33 34 33 32 33 33 33 32 31 29 29 29 29
38 37 37 38 38 37 37 37 38 39 39 40 41 40 41 41 41 41 40 40 40 40 40 39 39 39 37 36 36 35 35 35 35 34 35 35 35 35 34 34 33 31 31 31
37 37 37 37 38 38 37 37 38 39 39 40 41 41 41 41 40 41 41 42 42 40 40 39 39 39 38 36 35 36 36 35 36 36 37 36 35 35 35 35 34 34 33 33
36 37 37 37 37 38 38 38 39 39 39 40 40 41 41 42 42 41 41 41 42 42 41 40 40 40 38 36 35 36 36 35 35 35 35 35 35 36 36 36 36 36 35 35
35 36 37 37 37 38 39 39 39 39 39 39 40 40 41 42 43 43 42 42 41 42 42 42 41 40 39 38 38 37 37 36 35 36 36 36 37 37 37 38 38 36 36 37
33 34 35 35 35 36 37 38 38 38 38 39 40 40 41 42 43 43 43 43 42 42 43 43 42 41 40 39 38 37 35 36 36 36 37 38 37 37 38 38 38 37 38 39
33 33 33 33 34 35 36 37 37 37 38 38 39 40 40 40 40 40 41 41 41 41 42 42 41 41 41 40 39 37 37 37 37 38 38 38 37 37 38 38 38 38 39 39
31 32 32 32 33 34 35 36 36 36 37 37 37 39 39 38 37 36 36 37 37 38 39 40 41 41 40 39 38 37 36 37 37 38 38 38 37 37 37 37 37 36 36 37
28 28 29 30 30 32 33 34 34 34 34 34 35 36 36 36 35 34 34 34 35 36 37 38 38 37 36 37 37 37 36 36 37 37 37 37 36 36 36 37 37 37 37 37
24 24 25 26 26 27 28 29 29 30 30 31 31 31 31 31 32 32 32 32 33 33 33 34 35 34 34 35 35 34 33 34 35 36 36 37 36 36 36 36 36 37 37 37
21 22 23 24 24 24 24 25 26 27 27 27 29 29 29 29 29 28 30 31 32 33 32 31 31 32 33 32 31 32 33 33 34 35 36 36 36 36 35 35 35 36 37 37
19 20 21 23 24 23 22 23 24 25 25 26 26 26 26 26 27 27 27 29 30 31 30 29 29 30 30 31 32 33 33 33 33 33 34 34 34 35 36 35 34 35 35 35
16 17 19 19 20 20 20 21 22 22 23 24 24 24 24 24 24 24 25 26 26 27 27 27 28 29 29 30 30 31 31 32 32 32 32 32 33 34 34 34 33 33 33 34
15 16 16 17 17 18 19 20 20 20 21 21 22 22 23 23 23 24 24 25 25 25 25 26 27 28 28 29 29 29 29 29 29 30 30 30 30 31 31 31 32 32 33 33
14 15 16 16 16 16 17 17 17 17 18 19 19 20 20 20 21 21 22 23 24 24 24 24 25 26 27 26 25 25 25 26 26 26 26 27 27 28 29 30 30 30 30 30
14 14 14 14 14 14 14 14 14 14 15 16 16 17 17 17 18 19 20 20 20 21 21 21 21 21 21 22 21 21 21 22 23 23 24 25 25 26 27 27 27 27 27 28
13 13 13 13 13 12 12 12 12 12 13 13 14 14 14 15 15 15 16 17 17 18 18 17 17 17 18 18 18 19 19 20 20 21 23 23 24 24 25 25 25 26 27 27
11 11 11 11 11 12 11 12 12 11 11 11 12 12 13 13 14 14 14 14 15 15 15 15 15 16 16 17 18 19 19 19 20 21 22 23 24 23 24 25 25 26 26 27
9 9 9 9 9 10 10 10 11 11 11 11 10 10 11 12 12 12 13 14 14 14 15 15 15 16 16 17 17 18 19 20 20 21 20 20 21 22 23 23 24 25 26 26
Wind_Direction
234 234 236 237 239 242 244 248 251 253 256 258 258 258 260 260 262 264 267 271 274 276 280 283 285 289 290 293 294 294 295 295 295 297 299 299 299 299 298 300 299 297 297 299
238 238 240 241 241 243 245 248 250 251 254 256 257 257 258 259 261 263 266 270 274 278 277 279 284 286 289 291 292 292 292 289 289 291 292 291 292 293 293 294 297 295 289 290
242 243 244 245 244 246 247 248 251 252 254 254 255 256 257 258 261 262 265 269 272 275 277 279 281 284 286 288 290 292 294 290 288 287 289 288 287 290 289 291 295 298 296 289
246 245 246 248 248 248 249 250 251 253 254 254 255 254 255 256 259 260 262 266 268 268 272 275 277 278 281 284 288 288 289 291 288 285 284 284 283 285 287 288 290 294 295 294
250 250 249 249 251 252 252 252 253 253 254 255 255 254 254 256 259 260 262 263 264 265 266 270 274 275 278 281 284 286 286 287 287 287 283 280 281 283 284 285 287 289 291 293
252 254 254 252 252 253 254 254 253 253 253 254 255 254 255 256 257 259 261 261 261 263 265 267 272 275 277 279 281 283 284 285 287 287 284 282 282 284 282 283 284 286 287 287
253 255 256 255 255 255 256 256 254 254 254 253 254 256 257 257 257 259 260 261 262 263 265 268 270 273 276 276 278 281 283 282 282 284 283 283 283 282 281 280 283 284 283 285
253 255 257 257 257 257 257 256 255 255 255 255 255 256 256 256 258 260 259 261 262 264 267 267 270 272 275 275 277 278 279 280 280 281 280 281 283 283 283 280 282 283 283 284
253 255 257 257 257 257 257 257 256 256 256 256 256 255 256 257 258 258 258 260 262 264 267 269 270 271 274 274 276 276 278 279 279 279 278 279 280 282 284 283 282 284 286 285
254 254 255 256 257 258 258 257 256 256 256 256 256 255 255 256 257 256 256 259 261 264 266 268 270 271 271 272 275 277 278 277 277 278 278 278 279 280 282 284 284 286 287 288
254 255 255 256 257 258 258 258 256 256 255 255 256 256 256 256 256 256 257 258 261 264 266 266 268 270 270 270 272 275 276 275 276 276 277 277 279 281 282 284 284 285 285 285
255 255 256 255 256 256 257 257 257 257 258 258 257 257 258 258 258 258 258 259 261 262 265 266 266 268 267 268 271 273 273 273 274 274 277 277 280 281 283 285 285 283 282 282
258 258 258 257 257 258 259 259 259 259 259 261 260 260 260 260 258 257 258 259 261 262 264 266 266 266 268 268 269 269 270 270 271 273 274 276 278 279 281 283 283 282 281 282
259 260 260 258 257 258 259 259 259 260 261 262 262 262 263 262 261 260 261 261 262 264 265 266 268 268 268 269 269 268 269 269 271 272 274 275 276 279 281 282 282 282 282 282
258 259 260 260 258 257 258 259 259 260 261 262 263 263 264 263 263 261 261 262 261 263 265 266 268 269 269 270 268 269 270 271 271 273 274 274 276 279 280 282 283 282 282 282
258 260 260 261 261 259 258 259 261 263 264 263 264 264 264 263 262 262 263 263 263 264 265 265 267 267 268 269 268 270 271 272 273 275 277 276 277 279 281 282 282 283 282 282
261 260 260 261 262 261 260 261 261 263 265 266 266 266 265 264 263 263 264 264 264 264 265 265 266 267 269 270 269 269 269 271 274 276 277 276 276 278 280 281 282 284 285 284
260 260 260 262 262 262 262 262 262 262 263 264 266 266 267 266 264 262 261 262 264 264 264 266 266 267 269 270 269 268 268 270 272 273 275 276 276 278 279 280 281 282 283 283
260 261 262 262 264 265 262 261 261 262 262 263 264 264 263 262 262 261 260 262 264 266 266 265 265 267 268 267 267 269 270 271 273 274 274 275 276 277 278 279 280 281 282 284
264 264 263 264 266 267 266 264 264 265 264 263 263 263 262 264 263 263 263 263 263 264 264 265 266 267 268 266 266 268 270 271 273 275 276 277 277 277 278 278 280 282 284 285
268 267 266 264 266 268 270 269 267 265 265 263 263 264 264 263 263 264 263 263 264 265 268 269 268 268 269 269 269 269 271 273 274 275 277 278 279 279 279 279 280 282 285 286
268 267 266 267 270 270 271 270 268 266 264 264 265 267 266 263 263 265 263 262 264 267 270 271 271 270 270 270 270 271 273 274 275 276 278 279 280 280 281 281 281 283 286 287
271 270 269 271 272 273 272 271 268 266 266 266 267 269 267 265 266 265 263 265 267 269 271 272 271 272 271 271 271 274 275 276 276 278 278 280 282 283 283 284 285 286 287 288
276 277 275 273 272 272 271 270 268 268 267 268 268 268 270 271 272 270 268 269 272 275 275 274 275 273 273 272 273 276 277 278 279 280 280 282 284 285 285 285 286 288 289 290
279 279 277 274 271 269 267 267 269 271 271 269 269 270 271 273 274 274 273 270 272 275 276 275 276 273 273 273 275 278 280 282 281 282 283 284 286 286 286 288 289 290 291 292
282 283 280 273 273 273 271 270 273 276 276 275 275 274 274 277 277 276 276 277 279 281 282 280 280 281 280 279 280 281 282 283 285 285 285 286 287 287 287 288 289 292 294 294
285 286 285 279 274 275 274 275 273 271 273 274 276 274 274 278 281 283 284 283 282 285 288 286 284 283 284 283 284 284 285 286 288 289 289 290 291 292 292 291 292 294 295 295
Height
5852 5855 5858 5861 5863 5866 5868 5869 5871 5874 5876 5879 5881 5882 5884 5885 5886 5887 5888 5888 5889 5889 5888 5888 5887 5886 5885 5884 5884 5883 5882 5881 5880 5879 5877 5876 5875 5874 5872 5871 5869 5867 5866 5865
5845 5848 5851 5853 5856 5859 5861 5863 5865 5867 5870 5872 5874 5876 5878 5879 5880 5881 5882 5883 5883 5883 5882 5882 5882 5882 5881 5881 5880 5879 5878 5876 5875 5874 5873 5871 5870 5869 5868 5866 5864 5863 5861 5860
5837 5840 5843 5846 5849 5851 5854 5856 5858 5860 5863 5865 5867 5869 5871 5872 5873 5874 5876 5876 5877 5877 5876 5877 5877 5877 5876 5876 5875 5873 5872 5871 5869 5868 5866 5865 5864 5863 5862 5861 5859 5857 5855 5853
5829 5832 5834 5840 5841 5843 5845 5848 5850 5852 5855 5857 5859 5861 5863 5865 5866 5867 5868 5869 5869 5869 5870 5871 5870 5870 5870 5869 5869 5868 5866 5865 5863 5861 5859 5857 5856 5856 5855 5854 5853 5852 5849 5848
5820 5822 5825 5830 5832 5834 5837 5839 5842 5844 5846 5848 5850 5852 5855 5856 5858 5859 5860 5861 5862 5862 5862 5863 5863 5862 5862 5862 5861 5860 5859 5857 5855 5854 5851 5849 5849 5849 5848 5848 5847 5846 5844 5842
5810 5813 5816 5821 5823 5824 5827 5829 5832 5834 5837 5839 5841 5843 5846 5847 5849 5850 5852 5853 5853 5854 5854 5854 5855 5855 5855 5854 5854 5853 5851 5850 5848 5847 5844 5843 5842 5841 5841 5840 5839 5838 5837 5836
5801 5803 5806 5810 5813 5815 5818 5821 5822 5824 5827 5829 5831 5833 5836 5837 5839 5840 5842 5843 5844 5844 5845 5846 5846 5846 5846 5846 5845 5844 5843 5842 5841 5839 5837 5836 5835 5834 5833 5833 5831 5830 5829 5829
5791 5794 5799 5800 5802 5805 5807 5809 5811 5814 5816 5819 5821 5823 5825 5827 5828 5830 5831 5833 5834 5834 5835 5836 5836 5837 5837 5837 5836 5835 5834 5833 5832 5831 5830 5828 5827 5827 5825 5824 5823 5822 5821 5821
5782 5786 5788 5789 5791 5794 5796 5799 5801 5803 5806 5808 5810 5812 5814 5816 5818 5819 5821 5822 5824 5824 5825 5825 5825 5826 5826 5826 5825 5825 5824 5824 5823 5822 5821 5821 5820 5818 5816 5815 5814 5813 5813 5812
5772 5775 5777 5779 5782 5784 5786 5788 5790 5793 5795 5797 5799 5801 5803 5805 5807 5809 5810 5812 5813 5814 5815 5815 5815 5814 5814 5814 5814 5814 5814 5814 5813 5813 5812 5811 5810 5809 5808 5807 5806 5804 5803 5803
5762 5765 5767 5770 5771 5774 5776 5778 5780 5782 5784 5786 5788 5790 5792 5794 5796 5797 5799 5800 5802 5803 5803 5804 5804 5804 5803 5803 5803 5803 5804 5803 5802 5802 5802 5801 5800 5799 5798 5797 5796 5795 5794 5793
5753 5755 5757 5759 5761 5763 5765 5767 5769 5771 5773 5775 5776 5779 5781 5783 5784 5786 5787 5788 5789 5790 5791 5792 5793 5793 5792 5791 5791 5792 5792 5792 5792 5792 5791 5791 5790 5789 5788 5787 5785 5783 5783 5783
5743 5744 5746 5748 5750 5752 5754 5756 5758 5760 5762 5764 5765 5767 5769 5771 5772 5773 5774 5775 5777 5778 5779 5780 5780 5781 5781 5781 5780 5780 5780 5781 5782 5782 5781 5780 5779 5779 5778 5777 5775 5772 5771 5771
5733 5735 5736 5738 5740 5742 5743 5745 5747 5749 5751 5752 5754 5756 5757 5757 5759 5761 5762 5764 5765 5766 5767 5768 5769 5769 5768 5768 5768 5769 5769 5770 5770 5771 5770 5770 5769 5768 5767 5765 5764 5762 5761 5760
5724 5726 5727 5728 5730 5731 5733 5735 5737 5738 5740 5741 5742 5744 5745 5745 5745 5748 5749 5750 5752 5754 5754 5755 5756 5757 5757 5756 5756 5757 5758 5758 5759 5759 5759 5758 5757 5757 5755 5754 5753 5751 5750 5748
5716 5717 5718 5719 5721 5722 5723 5725 5726 5728 5729 5730 5731 5732 5733 5734 5735 5737 5738 5739 5740 5741 5742 5742 5743 5743 5744 5744 5744 5745 5746 5747 5747 5747 5747 5747 5746 5745 5744 5742 5741 5739 5738 5737
5708 5708 5709 5710 5712 5713 5714 5715 5717 5718 5719 5720 5720 5721 5722 5723 5724 5726 5727 5728 5729 5729 5730 5730 5730 5731 5732 5732 5732 5733 5734 5735 5735 5735 5735 5734 5734 5733 5732 5731 5730 5729 5728 5726
5699 5700 5701 5702 5703 5704 5705 5706 5707 5708 5709 5710 5711 5712 5713 5713 5714 5715 5717 5718 5719 5719 5719 5719 5719 5720 5720 5721 5721 5721 5722 5723 5723 5723 5723 5723 5723 5722 5721 5720 5719 5718 5717 5716
5692 5693 5694 5695 5696 5696 5697 5698 5699 5700 5700 5701 5702 5703 5703 5704 5704 5705 5707 5708 5709 5709 5710 5708 5708 5709 5710 5710 5710 5710 5711 5711 5711 5711 5711 5711 5711 5711 5710 5709 5708 5707 5706 5704
5686 5686 5688 5688 5689 5689 5689 5690 5691 5691 5692 5692 5693 5693 5694 5694 5695 5696 5697 5699 5699 5700 5700 5699 5699 5699 5699 5699 5699 5699 5700 5700 5700 5700 5700 5700 5700 5699 5698 5697 5696 5695 5694 5693
5681 5681 5681 5682 5682 5683 5683 5683 5683 5684 5684 5684 5685 5685 5686 5686 5687 5687 5688 5689 5690 5691 5690 5690 5690 5690 5689 5689 5689 5690 5690 5690 5691 5691 5690 5689 5689 5688 5688 5687 5686 5685 5683 5682
5677 5677 5677 5677 5677 5677 5677 5676 5676 5677 5677 5677 5678 5678 5679 5679 5680 5680 5680 5681 5682 5682 5682 5682 5681 5681 5680 5680 5680 5680 5681 5681 5681 5681 5680 5680 5679 5678 5677 5676 5675 5674 5672 5671
5672 5672 5672 5672 5672 5671 5671 5671 5671 5671 5671 5672 5672 5672 5673 5673 5673 5673 5674 5674 5674 5674 5674 5673 5672 5672 5671 5671 5672 5672 5672 5672 5672 5672 5671 5671 5670 5669 5668 5667 5665 5664 5663 5661
5669 5668 5668 5668 5667 5667 5666 5666 5666 5666 5666 5667 5667 5667 5667 5668 5668 5667 5668 5667 5667 5666 5666 5665 5664 5664 5664 5664 5664 5665 5665 5665 5664 5664 5664 5663 5661 5660 5659 5658 5657 5655 5654 5652
5665 5664 5664 5664 5663 5663 5663 5662 5662 5662 5662 5663 5663 5663 5663 5663 5662 5662 5662 5662 5662 5661 5660 5660 5659 5658 5658 5658 5658 5659 5658 5658 5657 5657 5656 5655 5654 5653 5651 5650 5648 5647 5645 5644
5661 5661 5660 5660 5659 5659 5659 5659 5659 5659 5659 5659 5659 5659 5659 5658 5658 5658 5658 5657 5657 5656 5655 5655 5654 5654 5654 5653 5653 5653 5653 5652 5651 5650 5649 5648 5647 5645 5644 5642 5641 5639 5637 5635
5658 5658 5657 5656 5656 5656 5656 5656 5656 5656 5656 5656 5656 5655 5655 5654 5654 5654 5653 5653 5653 5652 5651 5650 5650 5649 5649 5649 5648 5648 5647 5646 5645 5644 5642 5641 5640 5638 5637 5635 5634 5632 5630 5628